ARIANE 44LP DEB, 33544

Orbit data source: Space-Track

ARIANE 44LP DEB, 33544 is space debris in HEO originally from a launch on Sun, 11 Dec 1988 UTC launched from the French Guiana (FRGUI). Debris objects in space refer to the collection of defunct objects orbiting the Earth. Examples of debris include non-operational satellites, rocket bodies, and fragments generated from explosions, collisions, or faulty payload assembly.

Loading next visibility...
Identifier
33544, 1988-109T
Orbit
HEO
Country
Flag of FRFR
Related business
Manufacturer
Unknown
Mission
Spacecraft
Bus & Motor
Unknown
Mass
Unknown
Launch date (UTC)
1988-12-11 (37 years ago)
Launch vehicle
Unknown
Launch site
French Guiana (FRGUI)
Object type
Payload
Rocket body
Debris
Shape & HBR
Unknown shape, 0.4 m
Radar Cross Section
Medium (>0.1 m² and <1 m²)

Expand to show TLE details & history
Last TLE update: 2 months ago

TLE from 2 months ago
0 ARIANE 44LP DEB
1 33544U 88109T   25234.99996935  .00000054  00000-0  59534-3 0  9998
2 33544   6.5724 172.5696 7146195 183.5562 165.1100  2.37666002196376
Epoch: 2025-08-22T23:59Z
TLE epoch observation values (Epoch: 2025-08-22T23:59:57.351Z)
Latitude
0.0001°
Longitude
-159.0059°
Altitude
34,109.794 km
Speed
1.698 km/s
True Right ascension
11h 30m 05s
True Declination
0° 00' 00"
Sunlit
Object was in daylight at epoch
Visualization orbit readout
Latitude
Unknown
Longitude
Unknown
Altitude
Unknown
Speed
Unknown
Apparent Right ascension
Unknown
Apparent Declination
Unknown
Sunlit
N/A
Visualization observer readout
Local Sidereal Time
11:59:04
Azimuth
Unknown
Elevation
Unknown
Doppler factor
Unknown
Orbital elements
Apogee altitude
34,299.515 km
Perigee altitude
392.233 km
Semi-major axis
23,724.011 km
Eccentricity
0.71462
Inclination
6.5724°
RAAN
172.5696°
Arg. of periapsis
183.5562°
True anomaly
176.44577°
Mean anomaly
165.11°
Eccentric anomaly
171.30195°
Mean motion
0.59397 °/min
Orbital period
606.1 mins
BSTAR
0.00059534
Loading maneuver chart data...
Computing Atmospheric mass density...
Loading historical data...
Loading historical data...
Loading historical data...
Loading historical data...
Loading historical data...
Loading historical data...
Loading historical data...

Documentation

Showing up to 5 results
|